Wind_Speed
35 35 35 36 36 37 37 38 39 40 40 40 40 41 41 42 43 43 45 46 46 47 48 47 46 46 47 48 48 48 48 48 48 48 48 47 47 47 47 47 48 47 47
35 36 35 36 36 37 38 39 40 40 41 41 41 42 43 44 45 46 47 47 48 48 49 49 49 49 50 50 50 51 51 51 51 51 52 51 51 50 50 50 50 51 51
34 35 35 36 36 36 38 39 40 40 41 42 43 43 44 45 46 47 48 49 49 50 51 52 52 52 52 52 52 53 54 53 53 53 54 54 54 53 53 53 54 54 54
34 35 35 35 36 37 37 39 40 40 41 42 43 44 45 46 48 48 49 50 50 51 53 54 54 54 54 54 54 55 55 56 55 55 56 57 57 57 56 56 56 56 56
34 34 35 35 36 37 37 38 39 40 42 43 44 44 45 47 48 49 50 51 51 52 54 55 55 56 56 55 55 56 57 57 57 57 58 59 59 60 59 58 58 58 59
34 35 35 35 36 37 38 38 39 40 42 44 45 45 46 47 48 49 51 52 52 54 54 55 56 56 56 55 56 56 57 58 59 59 60 61 61 61 62 61 61 61 60
35 35 35 36 36 37 38 39 39 41 42 43 45 46 47 48 49 50 51 52 53 54 55 55 56 56 57 56 56 57 57 59 59 60 61 61 62 62 63 63 64 64 63
34 35 36 36 36 37 38 39 40 40 42 43 45 46 46 47 48 49 51 52 52 53 54 55 56 56 56 56 57 57 58 59 59 59 60 61 61 62 63 64 65 65 64
32 34 35 36 36 37 38 39 40 41 42 43 44 46 46 47 48 48 49 50 51 52 53 54 55 56 57 57 58 58 58 59 59 60 61 62 62 63 63 64 64 65 65
32 33 35 36 37 38 39 40 41 42 44 45 45 45 46 48 48 49 50 50 51 51 53 55 55 56 57 58 58 59 59 59 59 60 61 62 62 62 63 63 63 64 64
33 33 35 36 37 39 40 40 41 42 43 44 46 46 47 48 49 49 50 51 51 52 53 54 55 56 57 58 59 60 60 61 61 60 60 61 61 61 62 62 62 62 63
34 35 36 37 38 40 40 41 42 43 44 45 46 47 48 49 50 51 51 51 52 52 54 56 56 57 57 56 57 57 58 59 59 60 60 59 59 60 61 61 61 61 60
35 35 36 37 39 40 41 42 43 44 45 46 47 48 49 50 50 51 52 52 52 53 53 55 56 57 57 57 57 57 57 57 58 58 59 58 58 58 59 59 59 58 58
36 36 37 38 39 40 42 43 44 45 46 47 47 48 49 50 51 51 52 52 53 53 54 54 55 56 57 58 58 59 58 57 57 58 58 58 57 57 57 57 57 57 57
37 37 38 39 40 41 42 42 44 45 46 46 47 48 49 49 50 51 51 52 53 53 54 54 55 56 57 58 58 57 57 57 56 57 57 58 57 56 55 55 56 56 57
38 38 39 40 41 41 42 42 43 45 45 46 47 48 49 49 49 50 50 51 52 53 53 53 54 55 55 56 57 56 55 55 56 56 56 56 56 54 54 54 55 56 56
39 39 40 41 42 42 42 43 44 44 45 46 47 48 49 50 50 50 51 52 52 52 52 53 53 53 53 54 55 55 54 53 53 54 54 54 54 54 52 52 54 54 54
40 40 41 42 42 42 43 43 44 45 46 47 47 48 49 49 50 50 51 51 52 52 52 52 52 52 52 53 52 52 51 50 49 49 50 51 51 51 50 49 50 51 51
40 40 41 42 42 43 44 44 45 46 46 47 47 48 48 49 49 49 50 50 50 50 51 51 51 51 51 51 51 50 50 48 47 46 46 46 47 48 48 47 47 47 47
41 41 42 43 43 44 45 45 46 46 47 47 47 47 47 48 48 49 50 50 49 49 49 49 50 50 50 50 49 49 49 48 46 45 44 44 45 45 46 45 45 45 46
41 41 43 44 44 45 46 46 47 47 48 48 47 47 47 48 48 49 49 49 49 48 48 48 48 48 49 49 48 47 47 46 45 44 43 43 43 43 44 43 42 43 43
41 42 43 43 44 45 46 47 47 47 47 47 47 47 47 47 48 48 48 48 48 48 48 47 47 47 47 47 47 47 46 46 45 43 43 43 43 43 43 42 41 40 41
41 42 43 44 45 46 46 46 46 46 46 46 46 47 47 47 47 47 47 47 47 47 47 46 46 45 45 45 45 45 45 45 44 43 42 42 42 42 42 41 40 40 40
42 43 43 44 44 45 45 46 46 46 46 46 46 46 46 47 47 47 47 47 46 46 45 45 44 44 43 43 42 42 43 43 42 41 41 41 41 41 41 41 40 40 39
43 43 44 44 44 45 45 46 46 46 46 46 46 46 46 46 46 46 46 45 45 45 44 44 43 43 42 41 41 41 41 40 39 39 38 38 39 39 39 40 40 39 39
43 43 44 44 44 45 45 45 45 46 45 45 45 45 45 45 45 45 44 44 43 43 43 42 42 41 40 40 39 39 39 38 38 38 37 36 36 36 37 37 38 37 36
Wind_Direction
270 269 268 267 267 267 266 265 264 266 267 267 267 266 265 265 263 263 262 262 262 262 262 262 261 261 259 259 260 261 261 261 262 262 262 262 262 262 262 262 262 261 260
271 272 271 269 268 268 267 266 266 266 267 267 268 267 266 265 265 264 264 263 262 263 262 263 262 262 261 260 261 262 263 262 262 262 262 261 261 261 262 262 262 262 262
271 272 272 271 270 270 269 268 267 267 267 269 269 269 268 266 266 265 265 265 264 263 263 264 265 263 262 262 262 262 263 263 263 263 263 263 263 262 263 264 264 263 263
272 273 272 272 272 272 271 270 268 268 269 269 270 270 269 267 266 266 266 265 265 264 264 264 265 264 264 263 263 263 263 263 263 263 264 265 265 264 264 265 265 264 263
273 274 274 273 272 273 273 273 271 270 269 270 271 271 270 269 268 267 267 267 266 265 265 265 266 265 264 264 263 264 264 264 264 265 265 265 266 266 266 266 265 264 263
275 275 275 275 273 273 273 273 273 272 271 271 272 272 271 271 270 269 268 268 267 266 266 266 266 265 265 265 265 264 265 265 265 266 266 266 266 267 267 267 265 264 263
276 276 277 276 275 274 274 274 274 273 273 273 273 274 273 272 272 271 270 269 268 268 267 266 267 266 265 265 266 265 265 266 266 266 267 267 268 268 267 267 266 265 264
277 277 278 278 277 277 277 276 276 276 275 275 275 276 275 274 274 273 272 271 270 269 269 268 267 267 266 266 267 267 267 266 266 267 267 268 268 269 268 267 267 266 264
281 280 280 279 279 279 279 279 278 277 277 278 277 277 276 275 275 275 274 273 272 271 270 270 269 268 268 267 268 269 268 267 268 268 268 268 269 269 269 268 267 267 265
284 283 281 281 281 280 280 280 280 279 279 278 279 278 277 276 276 276 276 275 274 273 272 272 271 270 269 269 270 270 270 269 269 269 269 269 269 269 269 268 268 267 265
286 286 284 283 282 282 282 282 281 281 279 279 279 279 279 278 277 277 277 277 276 275 274 273 272 270 270 271 270 271 270 269 269 269 269 269 269 269 269 268 268 267 266
288 287 287 286 285 284 283 283 283 283 282 281 280 280 280 280 279 278 277 277 277 276 276 274 273 271 270 271 272 272 271 270 270 269 269 270 270 270 269 268 267 266 265
288 288 288 288 287 286 285 285 285 284 283 282 282 282 281 281 281 280 279 278 278 277 276 276 274 272 271 271 272 273 273 273 272 271 270 270 271 270 269 268 267 266 264
289 289 289 289 289 288 287 286 286 285 286 284 283 283 283 282 282 281 280 279 279 279 277 277 276 275 274 273 273 273 274 274 273 272 271 270 270 270 268 267 266 265 264
290 289 289 289 289 290 289 288 288 288 287 286 285 284 284 283 283 283 281 281 280 280 279 278 276 276 275 275 274 274 274 273 273 273 271 270 270 269 267 266 265 264 264
290 289 289 289 290 291 291 291 290 289 289 288 287 286 285 284 284 283 283 282 282 282 281 279 278 277 277 276 275 274 275 276 275 273 271 270 269 268 266 266 265 264 264
289 289 289 291 291 292 292 292 292 291 291 290 288 287 286 285 284 284 283 283 283 282 281 280 279 278 277 276 275 274 275 277 276 274 272 269 268 267 266 266 265 264 263
290 291 292 293 293 293 293 293 293 293 292 291 290 288 287 287 286 285 285 285 283 282 281 280 279 279 277 276 276 275 276 275 275 274 272 270 268 267 266 266 265 264 262
292 292 293 294 294 293 293 294 294 293 293 292 291 290 289 288 287 287 286 285 284 283 282 281 280 279 277 276 276 274 274 274 274 274 272 270 268 268 267 266 264 262 261
293 293 293 294 294 295 295 294 294 294 294 293 292 292 291 289 288 288 287 286 285 284 283 282 281 280 278 277 275 274 273 272 272 271 270 269 268 268 267 265 263 261 259
294 294 294 294 295 295 295 295 295 295 295 294 293 292 292 290 289 289 288 287 285 284 284 283 282 281 279 277 275 274 273 271 270 269 269 268 268 267 266 265 264 261 258
295 295 295 296 296 297 296 296 296 296 296 295 293 293 292 291 290 289 289 287 286 285 284 283 282 282 280 277 275 273 272 271 269 268 268 268 267 267 265 264 262 260 258
296 296 297 297 297 297 298 297 297 297 297 296 294 293 293 292 291 290 290 288 286 285 283 282 282 281 280 278 275 273 271 270 269 268 268 268 267 265 264 262 260 258 257
297 297 298 298 298 299 299 298 298 298 297 297 296 295 294 293 293 292 291 289 287 285 283 282 281 281 280 277 275 274 272 270 269 267 266 266 267 264 263 260 258 256 257
297 298 299 299 299 300 300 299 299 298 297 297 297 296 296 295 294 293 293 291 288 286 283 281 280 280 279 277 275 274 273 271 268 267 266 266 266 265 262 259 256 256 256
297 298 299 300 300 300 300 299 299 299 298 297 297 297 296 295 295 294 293 292 289 286 284 282 281 280 279 276 274 273 272 271 269 268 267 266 265 264 261 258 256 255 254
Height
5725 5724 5723 5723 5722 5722 5722 5722 5722 5721 5721 5721 5720 5720 5719 5719 5719 5719 5719 5719 5719 5719 5720 5721 5722 5723 5725 5727 5728 5730 5731 5732 5733 5734 5735 5736 5737 5738 5738 5739 5740 5741 5741
5716 5715 5714 5713 5713 5712 5712 5711 5711 5711 5710 5709 5709 5708 5708 5707 5707 5707 5707 5706 5707 5707 5708 5708 5709 5710 5712 5713 5715 5717 5718 5719 5720 5721 5722 5723 5725 5725 5726 5726 5727 5727 5728
5707 5706 5705 5704 5703 5702 5701 5701 5700 5700 5699 5698 5697 5696 5696 5695 5695 5694 5694 5694 5694 5694 5694 5695 5696 5697 5698 5699 5701 5702 5704 5705 5705 5706 5707 5708 5710 5711 5713 5712 5713 5713 5714
5697 5696 5695 5694 5693 5692 5691 5690 5689 5688 5687 5686 5685 5684 5683 5683 5682 5681 5681 5681 5680 5681 5681 5681 5681 5682 5683 5684 5686 5687 5688 5689 5690 5691 5691 5693 5693 5695 5697 5698 5697 5697 5698
5688 5687 5686 5684 5683 5681 5680 5679 5678 5677 5676 5674 5673 5672 5671 5669 5668 5667 5667 5666 5666 5666 5666 5667 5667 5667 5668 5669 5670 5671 5672 5673 5674 5674 5675 5676 5676 5677 5679 5682 5682 5682 5682
5679 5677 5676 5674 5673 5671 5670 5669 5667 5666 5664 5662 5661 5659 5658 5656 5655 5654 5653 5652 5652 5651 5651 5652 5652 5652 5652 5653 5654 5655 5655 5656 5657 5657 5658 5658 5659 5660 5660 5662 5664 5665 5666
5669 5668 5666 5665 5663 5662 5660 5658 5657 5655 5653 5651 5649 5647 5645 5643 5642 5640 5639 5638 5637 5637 5636 5636 5636 5636 5637 5637 5638 5638 5639 5639 5639 5640 5640 5640 5640 5641 5641 5642 5644 5645 5647
5660 5659 5657 5655 5653 5652 5650 5648 5646 5644 5641 5639 5637 5634 5632 5630 5628 5626 5625 5623 5622 5622 5621 5621 5621 5621 5621 5621 5621 5622 5622 5622 5622 5622 5622 5622 5622 5622 5621 5622 5623 5625 5627
5651 5650 5647 5645 5644 5641 5639 5637 5634 5632 5629 5627 5624 5622 5619 5617 5615 5613 5611 5609 5608 5607 5606 5606 5605 5605 5605 5604 5604 5605 5604 5604 5604 5604 5604 5603 5603 5603 5602 5602 5602 5604 5606
5643 5640 5638 5636 5634 5631 5629 5626 5623 5620 5617 5615 5612 5609 5606 5604 5602 5599 5597 5595 5594 5593 5592 5590 5590 5589 5588 5587 5587 5587 5587 5586 5586 5586 5585 5585 5584 5584 5583 5583 5583 5583 5584
5634 5631 5628 5626 5623 5621 5618 5615 5612 5608 5605 5602 5599 5596 5593 5591 5588 5586 5584 5582 5580 5578 5576 5575 5574 5573 5572 5571 5570 5570 5569 5568 5568 5567 5567 5566 5565 5565 5564 5564 5564 5564 5565
5624 5621 5618 5616 5613 5610 5607 5604 5600 5597 5593 5590 5587 5583 5580 5577 5575 5572 5570 5568 5565 5563 5561 5559 5558 5557 5555 5554 5553 5552 5551 5550 5550 5549 5548 5548 5547 5546 5545 5545 5546 5546 5547
5614 5611 5608 5605 5602 5598 5595 5592 5588 5584 5581 5577 5574 5570 5567 5564 5561 5558 5556 5553 5551 5548 5546 5544 5542 5540 5539 5538 5536 5535 5534 5533 5532 5531 5530 5530 5529 5528 5527 5527 5528 5528 5529
5604 5601 5598 5594 5591 5587 5583 5580 5576 5572 5568 5565 5561 5557 5554 5550 5547 5544 5541 5538 5535 5533 5530 5528 5526 5524 5523 5521 5519 5518 5517 5516 5515 5513 5513 5512 5511 5510 5510 5510 5510 5511 5512
5593 5590 5587 5583 5579 5576 5572 5568 5564 5559 5556 5552 5548 5544 5540 5536 5533 5530 5526 5523 5520 5518 5515 5512 5510 5508 5506 5504 5502 5501 5500 5499 5498 5496 5495 5494 5493 5492 5492 5492 5493 5493 5494
5582 5579 5575 5572 5568 5564 5560 5556 5551 5547 5543 5539 5535 5531 5527 5523 5519 5515 5512 5508 5505 5502 5499 5497 5494 5492 5490 5488 5485 5484 5483 5481 5480 5479 5477 5476 5476 5475 5475 5475 5476 5476 5477
5572 5568 5564 5560 5556 5552 5548 5544 5539 5535 5530 5526 5522 5517 5513 5509 5505 5501 5497 5494 5490 5487 5484 5481 5478 5476 5474 5471 5469 5467 5466 5465 5463 5461 5460 5459 5459 5458 5458 5459 5459 5459 5460
5561 5557 5553 5549 5545 5540 5536 5532 5527 5522 5518 5513 5508 5503 5499 5495 5491 5487 5483 5479 5475 5472 5469 5466 5463 5460 5458 5455 5453 5451 5449 5449 5447 5445 5444 5443 5443 5442 5442 5443 5443 5444 5446
5549 5545 5541 5537 5533 5528 5524 5519 5515 5510 5505 5499 5494 5490 5485 5481 5477 5472 5468 5464 5461 5457 5454 5450 5447 5445 5443 5440 5437 5435 5434 5433 5432 5431 5429 5428 5428 5428 5427 5428 5429 5430 5432
5538 5534 5529 5525 5521 5516 5511 5507 5502 5497 5491 5486 5481 5476 5471 5467 5462 5458 5454 5450 5446 5443 5439 5436 5432 5429 5427 5425 5422 5420 5419 5419 5418 5417 5416 5415 5414 5414 5413 5413 5415 5416 5418
5526 5522 5517 5513 5508 5504 5499 5494 5489 5483 5478 5472 5467 5462 5457 5453 5448 5444 5440 5435 5432 5428 5425 5422 5419 5415 5412 5410 5408 5406 5404 5404 5403 5403 5402 5402 5401 5401 5400 5401 5402 5403 5404
5515 5510 5506 5501 5496 5491 5486 5481 5475 5470 5464 5459 5454 5449 5444 5439 5434 5430 5425 5421 5417 5414 5411 5408 5405 5401 5398 5395 5393 5392 5390 5389 5389 5389 5389 5388 5388 5388 5388 5388 5389 5390 5391
5503 5498 5494 5489 5484 5478 5473 5468 5462 5457 5451 5446 5441 5435 5430 5426 5421 5416 5411 5407 5403 5400 5396 5393 5391 5388 5385 5382 5380 5378 5377 5376 5376 5376 5375 5375 5374 5374 5375 5376 5377 5378 5379
5491 5486 5481 5477 5471 5466 5460 5455 5449 5444 5438 5433 5428 5422 5417 5412 5407 5402 5397 5393 5389 5385 5382 5379 5377 5374 5372 5369 5366 5365 5364 5363 5363 5363 5362 5362 5361 5361 5362 5363 5364 5366 5368
5478 5474 5469 5464 5459 5453 5448 5442 5437 5431 5426 5420 5415 5410 5404 5399 5394 5389 5384 5379 5375 5371 5368 5365 5363 5361 5359 5356 5354 5352 5351 5351 5351 5350 5350 5350 5350 5350 5350 5351 5353 5354 5356
5466 5461 5456 5451 5446 5441 5435 5430 5424 5419 5413 5408 5402 5397 5391 5386 5381 5376 5371 5366 5362 5358 5354 5351 5349 5347 5345 5343 5341 5340 5339 5338 5338 5338 5338 5338 5339 5339 5340 5341 5342 5344 5346